Home   Weather   Daytona Beach   Past weeks

Flag for USA Past Weather in Daytona Beach, Florida, USA — Yesterday and Last 2 Weeks

Now
71 °F

Passing clouds.


Feels Like: 65 °F
Forecast: 73 / 87 °F
Wind: 3 mph from South

Location: Daytona Beach Regional Airport

Current Time: Sep 28, 2016 at 8:06:46 AM

Latest Report: Sep 28, 2016 at 6:53 AM


Visibility: 10 mi

Pressure: 29.96 "Hg

Humidity: 96%

Dew Point: 70 °F

Location of Daytona BeachLocation

Past Weather in Daytona Beach — Graph

°F

Daytona Beach Temperature Yesterday

Maximum temperature yesterday: 88 °F (at 1:53 PM)
Minimum temperature yesterday: 71 °F (at 4:53 AM)
Average temperature yesterday: 78 °F

High & Low Weather Summary for the Past Weeks

 TemperatureHumidityPressure
High90 °F (Sep 18, 12:53 PM)100% (Sep 15, 12:53 AM)30.08 "Hg (Sep 15, 12:53 AM)
Low71 °F (Sep 27, 4:53 AM)52% (Sep 26, 1:53 PM)29.88 "Hg (Sep 27, 3:53 PM)
Average80 °F84%29.99 "Hg
* Reported Sep 13 5:02 AM — Sep 28 5:53 AM, Daytona Beach, Weather by CustomWeather, © 2016

Note: Actual official high and low records may vary slightly from our data, if they occured in-between our weather recording intervals... More about our weather records

Advertising

Daytona Beach Weather History for the Previous 24 Hours

Scroll right to see more
 ConditionsComfort  
Time TempWeatherWind HumidityBarometerVisibility
5:53 AM
Wed, Sep 28
71 °FPassing clouds.3 mph96%29.96 "Hg10 mi
4:53 AM72 °FClear.6 mph93%29.94 "Hg10 mi
3:53 AM72 °FClear.3 mph97%29.93 "Hg10 mi
2:53 AM72 °FPassing clouds.5 mph97%29.94 "Hg10 mi
1:53 AM73 °FPassing clouds.8 mph94%29.95 "Hg10 mi
12:53 AM73 °FPassing clouds.7 mph94%29.96 "Hg10 mi
11:53 PM
Tue, Sep 27
73 °FPassing clouds.5 mph97%29.96 "Hg10 mi
10:53 PM74 °FOvercast.3 mph94%29.95 "Hg10 mi
9:53 PM74 °FHeavy rain. Fog.3 mph94%29.94 "Hg3 mi
8:53 PM74 °FThunderstorms. Fog.6 mph94%29.94 "Hg3 mi
7:53 PM79 °FStrong thunderstorms. Partly cloudy.7 mph82%29.91 "Hg5 mi
6:53 PM81 °FThunderstorms. Scattered clouds.8 mph74%29.89 "Hg10 mi
5:53 PM84 °FPassing clouds.8 mph70%29.88 "Hg10 mi
4:53 PM85 °FPassing clouds.8 mph70%29.88 "Hg10 mi
3:53 PM87 °FScattered clouds.7 mph67%29.88 "Hg10 mi
2:53 PM86 °FScattered clouds.8 mph70%29.89 "Hg10 mi
1:53 PM88 °FScattered clouds.7 mph57%29.91 "Hg10 mi
12:53 PM86 °FScattered clouds.6 mph63%29.93 "Hg10 mi
11:53 AM84 °FScattered clouds.5 mph72%29.95 "Hg10 mi
10:53 AM80 °FScattered clouds.3 mph81%29.95 "Hg10 mi
9:53 AM77 °FPartly sunny.5 mph88%29.95 "Hg10 mi
8:53 AM77 °FPassing clouds.6 mph82%29.94 "Hg10 mi
Weather by CustomWeather, © 2016

See weather overviewHow to use our weather pages